Regional Weather Roundup
Issued by NWS

Home | Current Version | Previous Version | Text Only | Print | Product List | Glossary On
Versions: 1 2 3 4 5 6 7 8 9 10 11 12 13 14 15 16 17 18 19 20 21 22 23 24 25 26 27 28 29 30 31 32 33 34 35 36 37 38 39 40 41 42 43 44 45 46 47 48 49 50
000
ASUS43 KFSD 031102
RWRSD

WEATHER ROUNDUP FOR SOUTH DAKOTA
NATIONAL WEATHER SERVICE SIOUX FALLS SD
600 AM CDT MON AUG 03 2015

NOTE: "FAIR" INDICATES FEW OR NO CLOUDS BELOW 12,000 FEET WITH NO
SIGNIFICANT WEATHER AND/OR OBSTRUCTIONS TO VISIBILITY.


SDZ001>005-009-010-012>017-031200-
NORTHWEST AND NORTH CENTRAL SOUTH DAKOTA

CITY           SKY/WX    TMP DP  RH WIND       PRES   REMARKS
BUFFALO          N/A     58  48  69 NE6       29.99R
FAITH            N/A     56  48  74 NE8       30.02S
MOBRIDGE       CLEAR     56  56 100 CALM      29.97S
$$

SDZ012>016-024>037-041>051-057-063-072>074-031200-
SOUTHWEST AND SOUTH CENTRAL SOUTH DAKOTA

CITY           SKY/WX    TMP DP  RH WIND       PRES   REMARKS
RAPID CTY ARPT CLEAR     57  51  80 CALM      30.02F
PIERRE         CLEAR     56  53  90 N7        29.98R
CUSTER         PTCLDY    54  47  77 NE6       30.13F
PHILIP         PTCLDY    58  55  90 W3        29.99R
PINE RIDGE     CLEAR     62  56  80 E6        30.01R
WINNER         FAIR      61  56  83 SE6       29.98F
$$

SDZ004>011-016>023-039-040-031200-
NORTHEAST SOUTH DAKOTA

CITY           SKY/WX    TMP DP  RH WIND       PRES   REMARKS
ABERDEEN       CLEAR     56  51  84 N6        29.96R
WATERTOWN      CLEAR     53  51  93 CALM      29.96R
BROOKINGS        N/A     54  50  87 CALM      29.98S VSB 1/2
SISSETON         N/A     53  48  83 W3        29.93R
$$

SDZ017-020-022-023-036>040-048>070-031200-
SOUTHEAST SOUTH DAKOTA

CITY           SKY/WX    TMP DP  RH WIND       PRES   REMARKS
SIOUX FALLS    PTCLDY    56  54  93 NW3       29.97R
HURON          CLEAR     57  56  96 W3        29.96R
CHAMBERLAIN    CLEAR     56  53  92 CALM      29.99R
MITCHELL       CLEAR     56  55  97 CALM      29.97S
YANKTON        CLEAR     59  55  88 CALM      29.96R
$$

ABBREVIATIONS USED IN REMARKS
   TC - TEMPERATURE IN CELSIUS
  WCI - WIND CHILL INDEX
   HX - HEAT INDEX
  VSB - VISIBILITY




USA.gov is the U.S. government's official web portal to all federal, state and local government web resources and services.